Alexandria, LA

6:38 AM CDT on September 30, 2016 (GMT -0500)
Alexandria International

Weather History for KAEX - October, 2013

Change the Weather History Date:

Wednesday, October 23, 2013

  Actual Average Record
Temperature  
Mean Temperature 62 °F 65 °F  
Max Temperature 78 °F 78 °F 93 °F (1939)
Min Temperature 45 °F 52 °F 33 °F (1893)
Degree Days  
Heating Degree Days 3 3  
Month to date heating degree days 31 39  
Since 1 July heating degree days 31 42  
Cooling Degree Days 0 3  
Month to date cooling degree days 141 115  
Year to date cooling degree days 2567 2465  
Growing Degree Days 10 (Base 50)    
Moisture  
Dew Point 49 °F    
Average Humidity 66    
Maximum Humidity 100    
Minimum Humidity 31    
Precipitation  
Precipitation 0.00 in 0.15 in 8.12 in (1972)
Month to date precipitation 2.57 4.48  
Year to date precipitation 45.55 43.61  
Snow  
Snow 0.00 in - 0.00 in ()
Month to date snowfall 0.0  
Since 1 July snowfall 0.0  
Since 1 September snowfall 0.0  
Snow Depth 0.00 in    
Sea Level Pressure  
Sea Level Pressure 30.09 in    
Wind  
Wind Speed 2 mph (North)    
Max Wind Speed 8 mph    
Max Gust Speed 17 mph    
Visibility 8 miles    
Events      
T = Trace of Precipitation, MM = Missing Value Source: NWS Daily Summary

Daily Weather History Graph

Daily Weather History Graph

Search for Another Location

Airport or City:

Trip Planner

Search our weather history database for the weather conditions in past years. The results will help you decide how hot, cold, wet, or windy it might be!

Date:

Astronomy

Oct. 23, 2013 Rise Set
Actual Time 7:19 AM CDT 6:29 PM CDT
Civil Twilight 6:54 AM CDT 6:54 PM CDT
Nautical Twilight 6:26 AM CDT 7:22 PM CDT
Astronomical Twilight 5:57 AM CDT 7:50 PM CDT
Moon 10:10 PM CDT (10/23) 11:27 AM CDT (10/23)
Length of Visible Light 11h 59m
Length of Day
11h 10m
Waning Gibbous, 79% of the Moon is Illuminated
Oct 23
Waning Gibbous
Oct 26
Last Quarter
Nov 3
New
Nov 9
First Quarter
Nov 17
Full

Hourly Weather History & Observations

Time (CDT) Temp. Dew Point Humidity Pressure Visibility Wind Dir Wind Speed Gust Speed Precip Events Conditions
12:39 AM 51.8 °F 51.8 °F 100% 30.05 in 2.5 mi Calm Calm - N/A   Partly Cloudy
12:53 AM 51.1 °F 51.1 °F 100% 30.07 in 10.0 mi Calm Calm - N/A   Clear
1:13 AM 50.0 °F 48.2 °F 94% 30.06 in 1.8 mi Calm Calm - N/A   Clear
1:26 AM 48.2 °F 48.2 °F 100% 30.06 in 1.0 mi Calm Calm - N/A   Unknown
1:28 AM 48.2 °F 46.4 °F 93% 30.06 in 0.8 mi Calm Calm - N/A   Unknown
1:35 AM 48.2 °F 46.4 °F 93% 30.06 in 10.0 mi Calm Calm - N/A   Scattered Clouds
1:53 AM 48.0 °F 48.0 °F 100% 30.08 in 10.0 mi Calm Calm - N/A   Scattered Clouds
2:00 AM 48.2 °F 48.2 °F 100% 30.06 in 0.8 mi Calm Calm - N/A   Clear
2:14 AM 50.0 °F 50.0 °F 100% 30.06 in 2.5 mi Calm Calm - N/A   Clear
2:21 AM 50.0 °F 50.0 °F 100% 30.06 in 10.0 mi Calm Calm - N/A   Clear
2:53 AM 48.9 °F 48.9 °F 100% 30.06 in 10.0 mi Calm Calm - 0.01 in   Clear
3:38 AM 48.2 °F 46.4 °F 93% 30.05 in 2.5 mi WNW 3.5 mph - N/A   Clear
3:53 AM 46.9 °F 46.9 °F 100% 30.07 in 7.0 mi Calm Calm - N/A   Clear
4:53 AM 48.9 °F 48.0 °F 97% 30.06 in 10.0 mi WNW 3.5 mph - N/A   Clear
5:53 AM 50.0 °F 48.9 °F 96% 30.06 in 10.0 mi West 3.5 mph - N/A   Clear
6:53 AM 48.0 °F 48.0 °F 100% 30.09 in 9.0 mi Calm Calm - N/A   Clear
7:23 AM 44.6 °F 44.6 °F 100% 30.08 in 1.5 mi Calm Calm - N/A   Clear
7:32 AM 46.4 °F 46.4 °F 100% 30.09 in 10.0 mi Calm Calm - N/A   Clear
7:53 AM 48.0 °F 48.0 °F 100% 30.12 in 10.0 mi Calm Calm - N/A   Clear
8:53 AM 55.0 °F 51.1 °F 86% 30.13 in 10.0 mi NW 3.5 mph - N/A   Clear
9:53 AM 62.1 °F 51.1 °F 67% 30.14 in 10.0 mi NE 3.5 mph - N/A   Clear
10:53 AM 68.0 °F 50.0 °F 52% 30.14 in 10.0 mi ENE 4.6 mph - N/A   Clear
11:53 AM 71.1 °F 48.9 °F 45% 30.14 in 10.0 mi Variable 3.5 mph - N/A   Clear
12:53 PM 73.9 °F 48.0 °F 40% 30.13 in 10.0 mi NE 5.8 mph - N/A   Clear
1:53 PM 75.9 °F 48.9 °F 38% 30.10 in 10.0 mi NNE 5.8 mph - N/A   Clear
2:53 PM 75.9 °F 46.9 °F 36% 30.08 in 10.0 mi East 4.6 mph - N/A   Clear
3:53 PM 77.0 °F 45.0 °F 32% 30.09 in 9.0 mi NNW 5.8 mph - N/A   Clear
4:53 PM 77.0 °F 46.9 °F 34% 30.09 in 10.0 mi NNE 4.6 mph - N/A   Clear
5:53 PM 72.0 °F 52.0 °F 49% 30.10 in 10.0 mi Calm Calm - N/A   Clear
6:53 PM 63.0 °F 55.9 °F 78% 30.11 in 10.0 mi Calm Calm - N/A   Clear
7:53 PM 59.0 °F 54.0 °F 83% 30.12 in 10.0 mi Calm Calm - N/A   Clear
8:53 PM 57.0 °F 53.1 °F 87% 30.13 in 10.0 mi Calm Calm - N/A   Clear
9:53 PM 55.9 °F 53.1 °F 90% 30.14 in 10.0 mi Calm Calm - N/A   Clear
10:53 PM 55.0 °F 53.1 °F 93% 30.14 in 10.0 mi Calm Calm - N/A   Clear
11:53 PM 53.1 °F 51.1 °F 93% 30.13 in 10.0 mi Calm Calm - N/A   Clear